Location: State Camp
(41.2367°N, 77.7828°W)
Time: 15:25:43
(UTC-04:00)

ADEOS Rocket - Visible Passes

Search period start: 16 April 2014 00:00
Search period end: 26 April 2014 00:00
Orbit: 859 x 1307 km, 98.8° (Epoch: 16 April)

Date Brightness Start Highest point End Pass type
(mag) Time Alt. Az. Time Alt. Az. Time Alt. Az.
16 Apr 5.0 00:32:20 17° WNW 00:32:20 17° WNW 00:34:59 10° NW visible
16 Apr 4.1 21:55:44 24° ENE 21:56:29 24° ENE 22:01:12 10° N visible
16 Apr 3.8 23:42:41 43° WNW 23:42:41 43° WNW 23:47:25 10° NNW visible
17 Apr 5.0 21:07:43 10° ENE 21:08:29 10° NE 21:09:16 10° NE visible
17 Apr 2.9 22:53:03 66° NE 22:53:03 66° NE 22:58:43 10° N visible
18 Apr 5.1 00:40:00 15° WNW 00:40:00 15° WNW 00:42:24 10° NW visible
18 Apr 3.9 22:03:24 28° ENE 22:04:12 29° ENE 22:09:19 10° N visible
18 Apr 3.9 23:50:21 39° WNW 23:50:21 39° WNW 23:55:12 10° NNW visible
19 Apr 4.8 21:13:47 10° ENE 21:16:08 13° NE 21:18:33 10° NNE visible
19 Apr 2.8 23:00:43 78° NE 23:00:43 78° NE 23:06:39 10° NNW visible
20 Apr 5.2 00:47:40 13° WNW 00:47:40 13° WNW 00:49:39 10° WNW visible
20 Apr 3.7 22:11:04 32° E 22:11:55 34° ENE 22:17:24 10° N visible
20 Apr 4.1 23:58:01 34° W 23:58:01 34° W 00:02:57 10° NNW visible
21 Apr 4.7 21:21:26 12° E 21:23:47 15° NE 21:27:06 10° NNE visible
21 Apr 2.8 23:08:23 86° WNW 23:08:23 86° WNW 23:14:34 10° NNW visible
22 Apr 5.3 00:55:20 11° W 00:55:20 11° W 00:56:29 10° WNW visible
22 Apr 3.5 22:18:44 37° E 22:19:39 40° ENE 22:25:27 10° N visible
23 Apr 4.3 00:05:41 30° W 00:05:41 30° W 00:10:41 10° NNW visible
23 Apr 4.6 21:29:06 14° E 21:31:28 18° ENE 21:35:29 10° NNE visible
23 Apr 2.9 23:16:03 76° WSW 23:16:06 76° WSW 23:22:28 10° NNW visible
24 Apr 3.3 22:26:25 43° E 22:27:24 46° ENE 22:33:29 10° N visible
25 Apr 4.5 00:13:22 26° W 00:13:22 26° W 00:18:23 10° NW visible
25 Apr 4.5 21:36:47 17° E 21:39:09 21° ENE 21:43:45 10° NNE visible
25 Apr 3.1 23:23:44 64° WSW 23:23:57 65° W 23:30:22 10° NNW visible
